📊 Raw Sensor Data
Showing records 39751 to 39775 of 84,951 total
| ID | Distance (ft) | Battery V | Battery A | Int Temp (°F) | Int Humid (%) | Ext Temp (°F) | Solar V | RSSI | SNR | Time Stamp |
|---|---|---|---|---|---|---|---|---|---|---|
| 45213 | 15.2 | 3.85 | -5 | 56 | 44 | 57 | 0.10 | -66 | 8 | 07/03/2025 03:45 AM |
| 45212 | 15.1 | 3.85 | -5 | 57 | 44 | 58 | 0.00 | -67 | 8 | 07/03/2025 03:30 AM |
| 45211 | 15.1 | 3.90 | -5 | 57 | 44 | 58 | 0.00 | -67 | 8 | 07/03/2025 03:15 AM |
| 45210 | 15.1 | 3.90 | -5 | 58 | 44 | 59 | 0.00 | -66 | 8 | 07/03/2025 03:00 AM |
| 45209 | 15.1 | 3.85 | -5 | 58 | 44 | 59 | 0.00 | -68 | 8 | 07/03/2025 02:45 AM |
| 45208 | 15.1 | 3.85 | -5 | 58 | 44 | 59 | 0.00 | -67 | 8 | 07/03/2025 02:30 AM |
| 45207 | 15.1 | 3.90 | -5 | 58 | 44 | 59 | 0.00 | -66 | 8 | 07/03/2025 02:15 AM |
| 45206 | 15.1 | 3.90 | -5 | 59 | 44 | 60 | 0.00 | -66 | 8 | 07/03/2025 02:00 AM |
| 45205 | 15.1 | 3.86 | -5 | 59 | 44 | 60 | 0.10 | -66 | 7 | 07/03/2025 01:45 AM |
| 45204 | 15.0 | 3.86 | -5 | 60 | 45 | 61 | 0.00 | -68 | 7 | 07/03/2025 01:15 AM |
| 45203 | 15.1 | 3.86 | -5 | 60 | 45 | 61 | 0.00 | -67 | 8 | 07/03/2025 01:00 AM |
| 45202 | 15.1 | 3.86 | -5 | 60 | 45 | 61 | 0.00 | -67 | 8 | 07/03/2025 12:45 AM |
| 45201 | 15.0 | 3.86 | -5 | 61 | 45 | 61 | 0.00 | -66 | 8 | 07/03/2025 12:30 AM |
| 45200 | 15.0 | 3.86 | -5 | 61 | 45 | 62 | 0.00 | -67 | 8 | 07/03/2025 12:15 AM |
| 45199 | 15.0 | 3.86 | -5 | 62 | 46 | 63 | 0.00 | -67 | 8 | 07/02/2025 11:45 PM |
| 45198 | 15.0 | 3.86 | -5 | 62 | 46 | 63 | 0.00 | -66 | 7 | 07/02/2025 11:30 PM |
| 45197 | 15.0 | 3.86 | -5 | 63 | 46 | 64 | 0.00 | -66 | 8 | 07/02/2025 11:15 PM |
| 45196 | 15.0 | 3.86 | -5 | 64 | 47 | 64 | 0.00 | -70 | 8 | 07/02/2025 11:00 PM |
| 45195 | 15.0 | 3.85 | -5 | 64 | 47 | 64 | 0.10 | -66 | 8 | 07/02/2025 10:45 PM |
| 45194 | 15.0 | 3.85 | -5 | 65 | 48 | 65 | 0.10 | -67 | 8 | 07/02/2025 10:30 PM |
| 45193 | 15.0 | 3.85 | -5 | 66 | 48 | 66 | 0.00 | -66 | 8 | 07/02/2025 10:15 PM |
| 45192 | 15.0 | 3.85 | -5 | 67 | 49 | 67 | 0.00 | -74 | 8 | 07/02/2025 10:00 PM |
| 45191 | 14.9 | 3.91 | -5 | 67 | 50 | 67 | 0.00 | -72 | 7 | 07/02/2025 09:45 PM |
| 45190 | 15.0 | 3.86 | -5 | 68 | 51 | 68 | 0.00 | -73 | 8 | 07/02/2025 09:30 PM |
| 45189 | 14.9 | 3.86 | -5 | 70 | 53 | 69 | 0.00 | -71 | 7 | 07/02/2025 09:15 PM |